Hourly Data Report for October 18, 2016

All times are specified in Local Standard Time (LST). Add 1 hour to adjust for Daylight Saving Time where and when it is observed.

PENTICTON A
BRITISH COLUMBIA

49°27'45.000" N
119°36'08.000" W
344.40 m
1126146
71889
YYF

Download Data

Hourly Data (October 2016)
Hourly Data Report for October 18, 2016
Temp Definition
°C
Dew Point Temp Definition
°C
Rel Hum Definition
%
Wind Dir Definition
10's deg

Wind Spd Definition
km/h
Visibility Definition
km
Stn Press Definition
kPa
Hmdx Definition


Wind Chill Definition


Weather Definition


TIME
00:00 Legend Double Dagger 5.5 5.1 97 33 5 24.1 96.94     LegendNANA
01:00 Legend Double Dagger 6.1 5.7 97 2 6 24.1 96.98     Mostly Cloudy
02:00 Legend Double Dagger 6.7 5.8 94 36 3 24.1 97.02     LegendNANA
03:00 Legend Double Dagger 5.5 4.8 95 35 9 24.1 97.04     LegendNANA
04:00 Legend Double Dagger 6.6 5.2 91 36 3 24.1 97.10     Cloudy
05:00 Legend Double Dagger 6.2 4.9 91 36 3 24.1 97.14     LegendNANA
06:00 Legend Double Dagger 5.4 4.7 95 36 4 24.1 97.19     LegendNANA
07:00 Legend Double Dagger 6.5 5.8 95 36 3 24.1 97.27     Cloudy
08:00 Legend Double Dagger 7.8 6.6 92 36 1 24.1 97.35     LegendNANA
09:00 Legend Double Dagger 8.9 6.9 87 15 5 24.1 97.38     LegendNANA
10:00 Legend Double Dagger 10.4 6.9 79 17 12 24.1 97.40     Mostly Cloudy
11:00 Legend Double Dagger 11.0 7.2 77 17 17 24.1 97.45     LegendNANA
12:00 Legend Double Dagger 11.2 7.0 75 17 18 24.1 97.47     LegendNANA
13:00 Legend Double Dagger 11.9 7.1 72 17 25 24.1 97.47     Mostly Cloudy
14:00 Legend Double Dagger 12.2 6.7 69 17 24 24.1 97.50     LegendNANA
15:00 Legend Double Dagger 12.0 6.5 69 18 29 24.1 97.55     LegendNANA
16:00 Legend Double Dagger 11.6 6.6 71 16 23 24.1 97.67     Rain Showers
17:00 Legend Double Dagger 10.2 6.6 78 18 18 24.1 97.72     LegendNANA
18:00 Legend Double Dagger 9.8 7.2 84 16 11 24.1 97.80     LegendNANA
19:00 Legend Double Dagger 9.6 7.4 86 16 14 24.1 97.86     Mostly Cloudy
20:00 Legend Double Dagger 9.1 6.6 84 17 13 24.1 97.92     LegendNANA
21:00 Legend Double Dagger 7.8 6.1 89 31 3 24.1 98.00     LegendNANA
22:00 Legend Double Dagger 8.2 5.5 83 10 4 24.1 98.06     Mostly Cloudy
23:00 Legend Double Dagger 8.8 6.1 83 24 3 24.1 98.14     LegendNANA

Notes on Data Quality.

Legend

  • E = Estimated
  • M = Missing
  • NA = Not Available
  • ‡ = Partner data that is not subject to review by the National Climate Archives
Date modified: